World > North America > United States > Texas

Wall, Texas Regional Weather

Lat: 31.37N, Lon: 100.31W
Wx Zone: TXZ072Web Search
Wall Weather Warning NWS WEATHER ALERT FOR THE WALL, TX AREA - SHORTTERM FORECAST Issued: 1229 PM CDT Sat Apr 17 2021 Wall Weather Warning  

Helpful Tip: You can add this page to Bookmarks by pressing the Ctrl key & d key at the same time. Mac users press command & d.

Feedback


°F Click to change Wall hourly weather to Imperial units.Click to change Wall hourly weather to Metric units. °C
Wall Weather Map
UTC Time: 4/17/2021, 19:43
Your Time:

Wall, TX Regional Weather

Expires:202104172000;;703919
ASUS44 KSJT 171915
RWRSJT
WEST CENTRAL TEXAS REGIONAL WEATHER ROUNDUP
NATIONAL WEATHER SERVICE SAN ANGELO TX
200 PM CDT SAT APR 17 2021

NOTE: "FAIR" INDICATES FEW OR NO CLOUDS BELOW 12,000 FEET WITH NO
SIGNIFICANT WEATHER AND/OR OBSTRUCTIONS TO VISIBILITY.


TXZ049-054-064>066-071>073-076>078-098-099-113-114-127-128-139-140-
154-155-168>170-172000-
...LOCATIONS ACROSS WEST CENTRAL TEXAS...
  
CITY           SKY/WX    TMP DP  RH WIND       PRES   REMARKS
SAN ANGELO     CLOUDY    56  37  49 N13       30.14F                  
ABILENE        CLOUDY    52  37  56 N16       30.17F                  
DYESS AFB      CLOUDY    51  34  51 N14G23    30.17S                  
JUNCTION       PTSUNNY   53  36  52 N16G24    30.12F                  
SWEETWATER     CLOUDY    49  37  63 N14       30.21S                  
BROWNWOOD      PTSUNNY   55  37  50 N16G22    30.13F                  
COLEMAN        NOT AVBL                                               
SONORA         PTSUNNY   52  37  58 N16       30.17F                  
OZONA          FAIR      52  36  54 NE8       30.17F                  
BRADY          LGT RAIN  46  43  87 N9        30.13S                  
$$


SKY/WX - Weather  TMP - Temperature  DP - Dew Point  RH - Relative Humidity
WIND - Wind Direction/Speed PRES - Barometric Pressure VSB - Visibility
WCI - Wind Chill Index E13G22 Wind - East Wind 13 mph/Gusts of 22 mph